Wind_Speed
5 3 6 8 8 1 3 3 4 5 2 5 5 9 14 20 18 10 7 9 14 17 17 17 16 15 16 18 19 18 17 18 17 16 16 15 15 16 18 19 17 15 14 13
3 6 5 5 5 3 2 1 5 5 3 3 6 15 16 6 8 13 16 14 11 10 11 11 11 11 13 15 17 16 17 17 15 15 15 16 17 18 17 14 13 13 13 15
6 1 5 3 1 3 2 3 2 3 6 2 7 7 6 5 12 16 15 13 11 7 3 4 7 10 10 10 12 14 15 15 15 16 17 18 19 18 15 14 13 14 15 15
4 5 4 3 3 4 2 1 1 2 4 2 4 5 5 4 6 6 9 9 7 5 3 1 2 4 7 11 13 15 16 16 17 18 19 19 18 16 14 14 12 12 12 13
4 5 4 3 2 3 3 1 2 2 3 4 3 3 6 3 2 2 4 6 6 7 8 9 10 12 13 14 15 17 18 18 19 18 17 16 15 15 13 13 13 12 13 13
3 2 3 2 3 3 2 2 3 2 2 2 5 4 4 2 4 1 2 4 9 7 8 9 10 11 13 15 16 16 17 17 16 16 15 15 14 13 12 12 13 12 12 12
3 2 2 3 4 1 5 4 3 3 1 5 4 1 6 3 3 3 3 10 8 8 9 10 12 14 15 16 14 15 14 14 15 14 13 13 14 13 12 13 13 12 11 11
6 3 3 1 2 5 3 5 4 6 2 4 2 5 5 5 3 2 6 9 8 11 12 11 12 12 13 15 16 16 15 13 13 12 12 13 14 14 15 14 14 13 12 12
4 2 3 5 2 1 3 2 3 4 3 3 3 3 3 2 5 6 8 9 13 14 15 14 13 13 12 12 13 13 12 12 12 12 13 14 14 14 13 11 11 12 11 12
3 5 2 3 3 4 2 2 4 3 1 3 5 4 5 4 4 5 8 14 18 17 14 11 12 13 12 11 11 11 11 11 12 13 13 12 12 11 9 9 10 10 11 12
3 4 3 3 5 6 2 1 1 2 3 5 2 5 4 8 6 5 8 11 15 18 16 11 10 12 12 11 11 10 10 11 11 11 10 10 8 7 7 9 10 10 10 12
2 4 3 3 0 2 2 5 5 4 5 2 3 6 5 6 5 7 7 9 14 16 17 14 11 11 10 9 9 8 8 9 9 8 7 6 7 8 8 8 9 7 9 11
4 2 4 1 1 1 3 4 3 3 2 5 5 5 2 3 5 5 8 11 13 15 15 15 12 11 9 8 7 7 7 7 7 6 6 6 7 8 8 8 6 5 7 9
4 2 5 6 4 5 5 10 10 5 3 3 7 5 4 4 5 10 10 10 9 13 16 16 16 15 12 9 8 8 8 7 7 6 6 7 7 8 8 6 5 5 6 7
3 5 2 3 5 2 6 6 11 16 11 7 4 6 6 6 5 5 10 10 8 13 19 17 17 17 14 11 9 9 8 8 8 6 6 7 9 7 6 5 4 4 5 6
1 3 3 4 3 4 5 9 10 16 14 12 13 22 7 4 3 8 16 13 12 12 22 20 16 15 15 14 12 10 9 8 8 7 6 6 7 6 6 4 3 3 4 5
5 4 3 4 1 0 6 9 12 5 3 10 12 10 2 3 6 14 22 15 6 15 23 22 20 17 17 16 16 12 11 11 10 9 8 8 8 7 6 6 5 6 8 8
5 4 3 3 2 1 6 2 3 7 5 5 2 4 5 2 12 12 7 6 12 21 22 21 21 19 16 16 15 14 14 14 13 13 12 12 12 11 11 11 10 10 11 11
4 4 1 3 3 5 1 4 6 6 6 6 8 3 4 9 13 5 2 14 22 20 19 20 20 20 18 17 17 16 13 15 17 15 16 16 17 17 16 16 15 15 16 16
1 3 3 2 3 5 6 4 6 4 4 3 7 3 1 6 3 3 10 24 20 18 18 20 20 20 19 17 18 19 17 16 16 17 20 20 21 23 23 21 20 20 21 19
4 2 5 3 2 7 5 5 7 5 5 6 2 0 2 2 6 17 21 17 15 16 19 19 19 18 18 18 18 18 17 17 18 20 21 23 24 25 26 26 25 24 24 24
6 6 4 3 3 8 9 6 6 3 4 3 2 3 6 9 11 11 13 14 15 16 17 18 19 17 16 16 17 18 18 19 20 22 24 23 24 26 28 28 28 28 28 28
2 6 4 7 5 3 20 2 8 5 4 4 2 2 5 6 7 9 12 13 14 16 17 18 19 18 16 15 18 19 19 20 20 20 21 22 23 24 26 30 31 30 31 32
3 5 2 2 3 4 16 7 5 3 3 3 2 1 2 5 7 9 11 12 15 17 18 19 19 19 18 17 18 19 21 21 21 21 20 20 21 21 21 25 29 32 33 34
4 6 5 3 2 2 10 11 9 7 5 4 2 2 3 4 7 10 11 13 15 17 18 18 20 20 20 19 19 19 20 21 22 21 20 19 19 19 19 19 22 26 28 31
8 6 5 5 9 6 5 21 13 9 6 5 4 3 3 6 8 10 12 14 16 17 18 19 19 20 20 20 21 20 20 20 21 22 21 19 18 17 18 19 20 17 19 20
Wind_Direction
193 117 210 209 211 165 141 173 238 272 338 338 255 286 284 283 291 317 42 87 109 117 142 161 179 197 214 235 247 254 260 264 267 275 282 288 289 291 294 297 297 295 295 298
63 220 204 151 129 131 97 301 276 282 67 359 297 294 293 347 73 83 78 79 89 116 151 162 183 209 228 243 251 256 258 265 274 278 284 287 291 293 294 290 286 293 299 304
162 174 142 140 165 161 205 205 264 241 335 309 325 310 349 48 82 82 72 77 73 71 114 197 219 231 237 240 249 256 263 271 277 279 283 286 289 291 288 283 285 287 289 293
229 180 173 174 197 126 195 123 98 20 49 258 52 282 335 62 69 70 76 66 65 62 50 8 268 260 258 262 266 272 275 276 276 280 284 287 288 284 281 286 287 287 292 294
225 154 133 132 150 102 193 115 134 96 69 48 318 81 272 183 59 46 84 67 26 343 315 299 294 291 287 281 276 274 273 274 277 281 284 283 280 279 284 284 287 289 286 288
111 83 83 128 104 105 120 71 73 73 78 322 241 149 264 253 204 111 117 343 331 327 318 309 298 292 287 283 276 273 274 277 281 281 280 278 278 280 280 285 284 284 283 282
121 128 86 85 107 173 69 72 1 334 351 221 256 118 252 229 222 186 287 329 336 321 315 304 295 292 289 287 285 284 281 281 281 280 280 282 282 282 291 286 284 285 278 275
153 267 137 38 144 175 155 141 156 215 240 257 323 240 262 218 278 314 340 340 341 330 317 313 306 301 290 281 277 278 281 284 284 286 287 282 284 291 287 284 285 285 282 284
128 127 91 62 31 53 182 157 143 95 32 44 231 281 350 135 346 356 345 339 338 331 326 316 313 311 303 289 282 281 280 285 285 287 284 284 289 289 288 291 288 289 290 297
173 103 155 129 61 36 118 160 65 7 178 267 288 265 226 198 284 313 331 345 342 340 329 314 310 314 312 303 292 287 290 290 287 287 284 287 294 299 303 302 301 301 304 301
122 93 138 101 201 172 146 67 143 126 168 165 259 264 220 168 209 247 299 343 354 1 354 334 323 321 320 309 297 292 296 297 285 281 293 303 303 305 316 311 307 305 307 308
158 134 145 200 55 306 183 191 151 140 245 207 152 271 201 178 204 239 313 4 13 13 10 360 350 337 329 316 304 301 288 275 282 303 323 314 315 329 322 322 313 316 320 316
179 152 130 146 91 18 227 193 177 144 102 205 147 258 299 255 302 323 351 11 15 12 13 11 3 353 348 337 320 299 286 290 303 333 334 330 345 340 336 337 343 338 328 327
111 112 162 181 187 141 194 208 204 154 144 199 226 255 291 262 309 328 350 2 4 9 9 3 2 358 349 342 329 312 303 310 322 326 336 341 333 332 334 346 355 349 339 346
104 174 107 263 239 234 198 191 200 210 213 193 240 214 251 240 241 315 335 336 330 358 359 2 354 352 350 337 324 310 306 310 322 317 343 334 314 315 329 344 359 354 349 354
82 148 93 305 345 185 246 229 212 222 236 253 270 281 214 264 316 325 331 326 322 330 346 350 344 344 344 338 319 308 300 301 305 313 320 310 306 308 319 333 345 350 333 335
147 130 99 268 229 112 304 227 190 193 233 214 242 247 233 306 322 332 320 311 320 332 341 342 338 335 333 333 328 306 292 286 288 289 288 291 295 299 298 301 303 303 305 306
142 120 114 228 36 339 242 234 174 196 222 220 284 247 208 223 325 332 67 59 347 334 338 337 332 327 326 322 319 318 292 284 280 278 279 279 279 281 281 284 289 294 294 295
138 136 151 154 216 290 310 224 165 159 276 206 215 252 237 333 327 210 172 343 337 334 332 330 326 324 322 315 309 307 308 288 282 282 277 274 274 274 274 277 280 282 285 285
214 100 134 83 147 223 242 247 192 136 305 235 152 187 322 2 348 255 315 326 325 327 327 325 323 322 318 311 304 301 300 296 295 281 271 267 266 268 271 274 276 278 280 283
148 137 201 182 221 284 236 190 157 95 234 164 148 252 261 213 237 301 309 319 329 326 325 325 324 328 326 319 313 308 303 296 287 284 278 270 265 264 266 267 268 273 274 277
158 147 192 141 188 264 146 114 165 191 132 165 214 274 287 293 304 316 324 330 335 338 338 338 341 345 339 332 323 318 313 304 297 289 287 284 277 267 264 263 263 265 269 272
233 183 185 185 215 213 182 156 160 165 164 183 217 277 310 325 336 340 339 341 347 347 346 348 349 350 350 345 337 331 327 319 314 305 296 291 284 278 269 265 263 261 262 266
261 186 210 59 261 205 179 170 178 170 165 173 191 336 352 351 346 348 350 350 350 352 351 349 350 351 351 348 341 334 330 326 322 318 315 307 298 290 280 273 271 267 265 265
200 144 197 261 289 107 207 214 198 177 157 150 127 84 31 9 3 357 357 354 352 352 352 353 351 352 349 345 342 337 333 329 327 324 320 315 309 303 296 285 279 277 273 270
189 186 181 220 209 186 202 197 184 178 165 147 132 108 52 30 20 12 6 1 355 353 353 353 353 351 350 348 345 342 339 336 333 332 332 328 319 313 307 301 293 287 289 287
Height
1493 1499 1501 1494 1493 1491 1493 1496 1499 1494 1490 1491 1488 1487 1478 1472 1471 1471 1471 1470 1469 1469 1472 1473 1474 1476 1477 1479 1480 1480 1480 1480 1480 1480 1480 1479 1478 1477 1476 1474 1472 1470 1468 1467
1495 1496 1487 1488 1489 1491 1492 1496 1499 1491 1490 1492 1489 1483 1473 1471 1474 1474 1474 1473 1473 1473 1474 1474 1475 1476 1477 1477 1477 1476 1476 1476 1477 1476 1476 1474 1473 1472 1470 1469 1468 1466 1465 1463
1491 1484 1485 1486 1489 1491 1492 1496 1495 1499 1496 1491 1493 1487 1481 1478 1476 1476 1476 1476 1476 1475 1475 1474 1475 1475 1474 1474 1473 1473 1473 1473 1473 1471 1471 1470 1469 1467 1466 1465 1464 1463 1462 1460
1484 1482 1483 1486 1488 1492 1497 1495 1497 1498 1509 1506 1498 1514 1484 1480 1482 1480 1477 1476 1476 1476 1475 1475 1474 1473 1473 1472 1471 1470 1470 1469 1468 1467 1467 1466 1464 1463 1462 1461 1460 1459 1458 1457
1484 1484 1484 1488 1488 1491 1497 1496 1498 1498 1511 1520 1503 1526 1489 1479 1482 1479 1478 1477 1476 1475 1474 1473 1471 1471 1470 1469 1468 1467 1466 1465 1464 1463 1463 1462 1461 1459 1458 1457 1456 1456 1455 1454
1481 1483 1485 1487 1489 1493 1495 1497 1499 1502 1504 1507 1508 1510 1489 1487 1486 1478 1478 1476 1475 1474 1473 1471 1469 1468 1467 1466 1465 1463 1462 1461 1459 1459 1458 1457 1456 1455 1454 1454 1454 1452 1452 1450
1482 1485 1487 1487 1491 1493 1497 1501 1529 1505 1517 1520 1499 1504 1485 1480 1479 1478 1477 1475 1473 1472 1471 1469 1467 1465 1463 1462 1461 1459 1458 1457 1456 1455 1455 1454 1453 1452 1451 1451 1449 1448 1448 1447
1482 1492 1487 1489 1492 1495 1493 1502 1513 1526 1518 1514 1495 1507 1481 1479 1478 1477 1477 1475 1473 1471 1469 1467 1465 1462 1460 1459 1457 1456 1455 1454 1453 1452 1452 1451 1450 1449 1448 1446 1445 1445 1444 1443
1479 1486 1490 1491 1492 1493 1494 1502 1500 1511 1539 1532 1505 1485 1480 1478 1480 1477 1476 1474 1472 1469 1466 1464 1462 1460 1458 1456 1454 1453 1452 1451 1450 1449 1449 1448 1446 1445 1443 1442 1442 1441 1441 1439
1471 1485 1488 1492 1492 1493 1493 1496 1510 1525 1533 1527 1499 1494 1482 1484 1485 1478 1475 1472 1470 1466 1463 1461 1459 1457 1455 1454 1452 1451 1450 1449 1448 1446 1446 1444 1442 1440 1439 1439 1439 1438 1436 1436
1468 1477 1493 1494 1493 1495 1496 1502 1501 1506 1511 1526 1522 1492 1480 1481 1481 1478 1472 1470 1468 1464 1460 1458 1457 1455 1453 1451 1450 1448 1447 1446 1445 1444 1442 1440 1438 1437 1436 1436 1435 1434 1433 1432
1467 1479 1496 1496 1494 1493 1492 1496 1499 1515 1512 1520 1511 1493 1476 1475 1474 1472 1470 1468 1466 1464 1461 1458 1455 1453 1451 1449 1448 1446 1446 1445 1443 1441 1438 1437 1436 1434 1434 1433 1433 1431 1430 1429
1467 1474 1485 1486 1492 1493 1490 1486 1494 1500 1500 1510 1505 1488 1475 1473 1471 1469 1467 1465 1464 1463 1460 1458 1455 1452 1449 1447 1446 1445 1444 1442 1440 1438 1437 1436 1434 1434 1432 1431 1430 1428 1427 1427
1465 1472 1483 1482 1484 1490 1487 1482 1483 1488 1514 1509 1486 1486 1479 1473 1470 1466 1465 1463 1462 1461 1458 1456 1452 1450 1447 1445 1444 1443 1441 1439 1437 1436 1435 1433 1433 1432 1431 1430 1428 1427 1426 1425
1467 1482 1481 1479 1474 1483 1491 1492 1482 1477 1480 1476 1482 1483 1476 1469 1467 1464 1463 1461 1460 1458 1456 1453 1451 1449 1446 1444 1442 1440 1439 1437 1435 1434 1432 1432 1432 1431 1430 1428 1426 1426 1425 1424
1469 1481 1487 1493 1492 1496 1487 1482 1480 1472 1472 1474 1470 1463 1462 1460 1461 1461 1460 1459 1457 1455 1453 1450 1448 1445 1443 1440 1438 1437 1435 1433 1433 1432 1431 1431 1430 1429 1428 1426 1425 1425 1424 1423
1471 1478 1489 1499 1491 1489 1489 1472 1470 1471 1476 1463 1466 1461 1460 1461 1459 1457 1454 1455 1454 1453 1449 1445 1443 1440 1438 1436 1434 1433 1431 1430 1429 1429 1429 1428 1427 1426 1425 1424 1424 1423 1422 1421
1469 1475 1486 1495 1495 1498 1460 1466 1464 1460 1467 1464 1462 1462 1458 1457 1456 1455 1452 1453 1452 1450 1446 1442 1439 1436 1434 1432 1430 1428 1427 1426 1425 1425 1425 1425 1424 1423 1422 1422 1421 1420 1419 1418
1461 1471 1485 1491 1497 1467 1453 1462 1462 1457 1456 1453 1454 1456 1455 1454 1452 1452 1451 1451 1449 1446 1443 1440 1436 1433 1430 1427 1425 1423 1422 1421 1420 1420 1420 1420 1419 1418 1418 1417 1417 1416 1415 1414
1460 1463 1474 1492 1500 1494 1456 1451 1449 1449 1462 1448 1448 1453 1453 1453 1460 1451 1449 1447 1445 1443 1439 1436 1432 1429 1426 1423 1420 1418 1417 1416 1415 1414 1412 1412 1412 1411 1411 1411 1411 1410 1409 1408
1461 1466 1468 1484 1490 1468 1449 1447 1448 1459 1455 1446 1447 1450 1451 1453 1451 1448 1446 1444 1442 1438 1435 1432 1429 1425 1421 1418 1415 1413 1411 1410 1408 1406 1405 1404 1404 1403 1403 1403 1403 1403 1403 1401
1465 1476 1483 1478 1474 1470 1442 1448 1452 1446 1444 1445 1446 1448 1449 1448 1447 1445 1443 1440 1437 1434 1431 1428 1424 1422 1418 1415 1411 1408 1406 1403 1402 1400 1397 1397 1396 1395 1394 1393 1394 1394 1394 1393
1459 1451 1457 1453 1449 1438 1438 1439 1441 1442 1443 1444 1445 1446 1446 1446 1444 1442 1440 1438 1435 1432 1429 1425 1422 1419 1416 1412 1408 1404 1401 1398 1395 1393 1391 1388 1387 1386 1385 1384 1384 1384 1384 1383
1445 1441 1444 1443 1436 1435 1436 1438 1440 1441 1441 1443 1444 1444 1444 1443 1442 1440 1438 1436 1433 1430 1426 1422 1419 1416 1413 1410 1406 1402 1398 1394 1390 1387 1384 1381 1379 1377 1376 1375 1375 1374 1374 1375
1438 1438 1438 1438 1436 1434 1435 1436 1438 1440 1440 1441 1442 1442 1442 1441 1440 1438 1436 1433 1431 1428 1424 1420 1416 1413 1410 1407 1403 1399 1394 1390 1386 1382 1379 1376 1373 1370 1368 1367 1367 1365 1365 1365
1429 1430 1433 1430 1424 1425 1428 1432 1436 1437 1438 1439 1440 1440 1440 1440 1438 1437 1434 1432 1429 1426 1423 1419 1415 1411 1408 1404 1400 1395 1391 1387 1382 1378 1375 1371 1368 1365 1362 1360 1359 1359 1358 1357